Time,TemperatureF,DewpointF,PressureIn,WindDirection,WindDirectionDegrees,WindSpeedMPH,WindSpeedGustMPH,Humidity,HourlyPrecipIn,Conditions,Clouds,dailyrainin,SoftwareType,DateUTC
2013-07-05 00:09:00,70.2,39.6,29.73,South,180,4.3,4.3,33,0.00,,,0.00,WUHU216HW,2013-07-05 06:09:00,
2013-07-05 00:19:00,70.0,39.4,29.73,SW,225,0.7,1.8,33,0.00,,,0.00,WUHU216HW,2013-07-05 06:19:00,
2013-07-05 00:29:00,69.8,38.5,29.73,SSE,158,1.1,3.6,32,0.00,,,0.00,WUHU216HW,2013-07-05 06:29:00,
2013-07-05 00:39:00,69.5,39.0,29.73,South,180,1.8,4.7,33,0.00,,,0.00,WUHU216HW,2013-07-05 06:39:00,
2013-07-05 00:49:00,69.1,38.6,29.73,SE,135,2.2,2.9,33,0.00,,,0.00,WUHU216HW,2013-07-05 06:49:00,
2013-07-05 00:59:00,68.8,39.1,29.73,ESE,113,0.0,2.0,34,0.00,,,0.00,WUHU216HW,2013-07-05 06:59:00,
2013-07-05 01:09:00,68.2,39.3,29.73,East,90,0.4,0.9,35,0.00,,,0.00,WUHU216HW,2013-07-05 07:09:00,
2013-07-05 01:19:00,67.5,39.4,29.74,West,270,1.8,2.5,36,0.00,,,0.00,WUHU216HW,2013-07-05 07:19:00,
2013-07-05 01:29:00,67.0,39.0,29.74,NNW,338,0.0,1.6,36,0.00,,,0.00,WUHU216HW,2013-07-05 07:29:00,
2013-07-05 01:39:00,66.6,38.6,29.74,ESE,113,0.4,1.1,36,0.00,,,0.00,WUHU216HW,2013-07-05 07:39:00,
2013-07-05 01:49:00,66.1,38.9,29.74,East,90,1.1,3.6,37,0.00,,,0.00,WUHU216HW,2013-07-05 07:49:00,
2013-07-05 01:59:00,65.5,39.2,29.74,East,90,1.1,1.8,38,0.00,,,0.00,WUHU216HW,2013-07-05 07:59:00,
2013-07-05 02:09:00,65.2,38.1,29.74,East,90,0.4,2.9,37,0.00,,,0.00,WUHU216HW,2013-07-05 08:09:00,
2013-07-05 02:20:00,65.0,37.9,29.75,East,90,0.7,2.0,37,0.00,,,0.00,WUHU216HW,2013-07-05 08:20:00,
2013-07-05 02:30:00,64.6,37.6,29.75,East,90,0.2,0.4,37,0.00,,,0.00,WUHU216HW,2013-07-05 08:30:00,
2013-07-05 02:40:00,64.3,38.0,29.75,SSW,203,1.3,1.3,38,0.00,,,0.00,WUHU216HW,2013-07-05 08:40:00,
2013-07-05 02:50:00,63.7,38.3,29.75,South,180,1.6,3.4,39,0.00,,,0.00,WUHU216HW,2013-07-05 08:50:00,
2013-07-05 03:00:00,63.4,38.6,29.75,South,180,1.1,1.8,40,0.00,,,0.00,WUHU216HW,2013-07-05 09:00:00,
2013-07-05 03:10:00,63.0,37.6,29.75,South,180,0.4,0.4,39,0.00,,,0.00,WUHU216HW,2013-07-05 09:10:00,
2013-07-05 03:20:00,62.8,38.2,29.75,East,90,0.4,1.8,40,0.00,,,0.00,WUHU216HW,2013-07-05 09:20:00,
2013-07-05 03:30:00,62.3,38.3,29.75,SSW,203,0.7,1.3,41,0.00,,,0.00,WUHU216HW,2013-07-05 09:30:00,
2013-07-05 03:40:00,61.9,37.9,29.75,SSW,203,0.0,0.9,41,0.00,,,0.00,WUHU216HW,2013-07-05 09:40:00,
2013-07-05 03:50:00,61.7,38.4,29.75,East,90,0.7,0.9,42,0.00,,,0.00,WUHU216HW,2013-07-05 09:50:00,
2013-07-05 04:00:00,61.4,38.0,29.74,SE,135,0.9,0.9,42,0.00,,,0.00,WUHU216HW,2013-07-05 10:00:00,
2013-07-05 04:10:00,61.0,38.3,29.74,SE,135,1.8,1.8,43,0.00,,,0.00,WUHU216HW,2013-07-05 10:10:00,
2013-07-05 04:20:00,60.7,38.5,29.74,SSW,203,0.4,2.2,44,0.00,,,0.00,WUHU216HW,2013-07-05 10:20:00,
2013-07-05 04:31:00,60.5,38.3,29.74,West,270,0.0,1.1,44,0.00,,,0.00,WUHU216HW,2013-07-05 10:31:00,
2013-07-05 04:41:00,60.1,38.0,29.74,NNW,338,1.1,1.1,44,0.00,,,0.00,WUHU216HW,2013-07-05 10:41:00,
2013-07-05 04:51:00,59.6,39.2,29.74,South,180,0.0,1.8,47,0.00,,,0.00,WUHU216HW,2013-07-05 10:51:00,
2013-07-05 05:01:00,59.2,39.0,29.74,SSW,203,1.6,1.6,47,0.00,,,0.00,WUHU216HW,2013-07-05 11:01:00,
2013-07-05 05:11:00,58.9,38.6,29.74,South,180,0.0,1.1,47,0.00,,,0.00,WUHU216HW,2013-07-05 11:11:00,
2013-07-05 05:21:00,58.7,38.4,29.75,South,180,0.0,0.0,47,0.00,,,0.00,WUHU216HW,2013-07-05 11:21:00,
2013-07-05 05:31:00,58.3,38.7,29.75,WSW,248,0.9,1.8,48,0.00,,,0.00,WUHU216HW,2013-07-05 11:31:00,
2013-07-05 05:41:00,58.0,39.0,29.75,SSW,203,0.4,0.7,49,0.00,,,0.00,WUHU216HW,2013-07-05 11:41:00,
2013-07-05 05:52:00,57.8,39.3,29.75,SW,225,0.0,0.4,50,0.00,,,0.00,WUHU216HW,2013-07-05 11:52:00,
2013-07-05 06:02:00,57.6,39.3,29.75,SSW,203,0.0,0.0,50,0.00,,,0.00,WUHU216HW,2013-07-05 12:02:00,
2013-07-05 06:12:00,57.2,39.3,29.76,WSW,248,0.0,0.9,51,0.00,,,0.00,WUHU216HW,2013-07-05 12:12:00,
2013-07-05 06:22:00,57.2,39.8,29.76,WSW,248,0.0,0.0,52,0.00,,,0.00,WUHU216HW,2013-07-05 12:22:00,
2013-07-05 06:32:00,57.8,40.8,29.76,WSW,248,0.4,0.4,53,0.00,,,0.00,WUHU216HW,2013-07-05 12:32:00,
2013-07-05 06:42:00,58.9,41.8,29.76,SW,225,0.0,0.0,53,0.00,,,0.00,WUHU216HW,2013-07-05 12:42:00,
2013-07-05 06:52:00,60.1,42.9,29.76,SW,225,0.0,0.0,53,0.00,,,0.00,WUHU216HW,2013-07-05 12:52:00,
2013-07-05 07:02:00,61.2,42.9,29.76,North,0,0.2,0.7,51,0.00,,,0.00,WUHU216HW,2013-07-05 13:02:00,
2013-07-05 07:12:00,61.9,43.1,29.76,North,0,0.7,0.9,50,0.00,,,0.00,WUHU216HW,2013-07-05 13:12:00,
2013-07-05 07:22:00,62.5,43.6,29.76,North,0,0.4,1.6,50,0.00,,,0.00,WUHU216HW,2013-07-05 13:22:00,
2013-07-05 07:32:00,63.4,44.4,29.76,NE,45,0.7,0.7,50,0.00,,,0.00,WUHU216HW,2013-07-05 13:32:00,
2013-07-05 07:42:00,64.1,44.5,29.76,NE,45,0.4,1.8,49,0.00,,,0.00,WUHU216HW,2013-07-05 13:42:00,
2013-07-05 07:53:00,65.0,44.7,29.77,North,0,1.1,1.1,48,0.00,,,0.00,WUHU216HW,2013-07-05 13:53:00,
2013-07-05 08:03:00,65.3,44.5,29.77,North,0,1.3,1.8,47,0.00,,,0.00,WUHU216HW,2013-07-05 14:03:00,
2013-07-05 08:13:00,65.9,45.0,29.77,ENE,68,2.2,2.2,47,0.00,,,0.00,WUHU216HW,2013-07-05 14:13:00,
2013-07-05 08:23:00,66.8,44.1,29.77,North,0,1.1,2.2,44,0.00,,,0.00,WUHU216HW,2013-07-05 14:23:00,
2013-07-05 08:33:00,67.1,44.4,29.77,North,0,1.1,1.8,44,0.00,,,0.00,WUHU216HW,2013-07-05 14:33:00,
2013-07-05 08:43:00,67.0,44.3,29.77,NE,45,0.9,2.2,44,0.00,,,0.00,WUHU216HW,2013-07-05 14:43:00,
2013-07-05 08:53:00,67.5,45.4,29.77,North,0,1.6,2.0,45,0.00,,,0.00,WUHU216HW,2013-07-05 14:53:00,
2013-07-05 09:03:00,68.0,45.2,29.77,NW,315,0.9,2.2,44,0.00,,,0.00,WUHU216HW,2013-07-05 15:03:00,
2013-07-05 09:13:00,68.4,45.5,29.77,North,0,0.9,3.4,44,0.00,,,0.00,WUHU216HW,2013-07-05 15:13:00,
2013-07-05 09:23:00,69.3,47.0,29.77,NNE,23,1.6,2.0,45,0.00,,,0.00,WUHU216HW,2013-07-05 15:23:00,
2013-07-05 09:33:00,70.4,46.7,29.76,NNE,23,0.0,1.8,43,0.00,,,0.00,WUHU216HW,2013-07-05 15:33:00,
2013-07-05 09:43:00,71.3,47.0,29.76,WSW,248,0.9,1.8,42,0.00,,,0.00,WUHU216HW,2013-07-05 15:43:00,
2013-07-05 09:53:00,71.6,46.1,29.76,North,0,1.3,2.5,40,0.00,,,0.00,WUHU216HW,2013-07-05 15:53:00,
2013-07-05 10:03:00,72.2,47.2,29.76,SE,135,1.6,2.0,41,0.00,,,0.00,WUHU216HW,2013-07-05 16:03:00,
2013-07-05 10:13:00,73.1,47.3,29.76,SW,225,0.0,3.4,40,0.00,,,0.00,WUHU216HW,2013-07-05 16:13:00,
2013-07-05 10:23:00,73.3,46.0,29.75,North,0,1.1,2.9,38,0.00,,,0.00,WUHU216HW,2013-07-05 16:23:00,
2013-07-05 10:34:00,73.8,46.5,29.75,North,0,2.5,3.4,38,0.00,,,0.00,WUHU216HW,2013-07-05 16:34:00,
2013-07-05 10:44:00,74.3,47.0,29.75,ENE,68,2.9,2.9,38,0.00,,,0.00,WUHU216HW,2013-07-05 16:44:00,
2013-07-05 10:54:00,75.2,47.8,29.74,NNE,23,2.0,3.4,38,0.00,,,0.00,WUHU216HW,2013-07-05 16:54:00,
2013-07-05 11:04:00,75.8,47.5,29.74,ENE,68,1.8,4.7,37,0.00,,,0.00,WUHU216HW,2013-07-05 17:04:00,
2013-07-05 11:14:00,76.1,47.9,29.74,NE,45,1.8,4.3,37,0.00,,,0.00,WUHU216HW,2013-07-05 17:14:00,
2013-07-05 11:24:00,76.7,45.4,29.74,North,0,5.4,5.4,33,0.00,,,0.00,WUHU216HW,2013-07-05 17:24:00,
2013-07-05 11:34:00,77.0,45.6,29.73,NE,45,3.6,4.5,33,0.00,,,0.00,WUHU216HW,2013-07-05 17:34:00,
2013-07-05 11:44:00,77.6,46.1,29.73,NNE,23,3.4,4.5,33,0.00,,,0.00,WUHU216HW,2013-07-05 17:44:00,
2013-07-05 11:54:00,77.9,46.4,29.72,NW,315,4.5,4.5,33,0.00,,,0.00,WUHU216HW,2013-07-05 17:54:00,
2013-07-05 12:04:00,78.5,46.1,29.72,NNE,23,4.0,4.3,32,0.00,,,0.00,WUHU216HW,2013-07-05 18:04:00,
2013-07-05 12:14:00,78.5,44.6,29.72,West,270,3.4,6.0,30,0.00,,,0.00,WUHU216HW,2013-07-05 18:14:00,
2013-07-05 12:24:00,78.8,44.8,29.72,ENE,68,3.6,5.8,30,0.00,,,0.00,WUHU216HW,2013-07-05 18:24:00,
2013-07-05 12:34:00,79.6,44.5,29.71,East,90,4.9,6.3,29,0.00,,,0.00,WUHU216HW,2013-07-05 18:34:00,
2013-07-05 12:44:00,79.6,43.4,29.71,WSW,248,1.1,4.5,28,0.00,,,0.00,WUHU216HW,2013-07-05 18:44:00,
2013-07-05 12:54:00,79.9,43.8,29.71,NNE,23,2.0,5.1,28,0.00,,,0.00,WUHU216HW,2013-07-05 18:54:00,
2013-07-05 13:04:00,79.4,43.2,29.70,North,0,3.4,6.3,28,0.00,,,0.00,WUHU216HW,2013-07-05 19:04:00,
2013-07-05 13:14:00,79.6,43.4,29.70,North,0,6.3,6.3,28,0.00,,,0.00,WUHU216HW,2013-07-05 19:14:00,
2013-07-05 13:24:00,79.6,43.4,29.70,NNE,23,6.3,6.9,28,0.00,,,0.00,WUHU216HW,2013-07-05 19:24:00,
2013-07-05 13:34:00,79.9,44.7,29.69,West,270,1.8,6.0,29,0.00,,,0.00,WUHU216HW,2013-07-05 19:34:00,
2013-07-05 13:44:00,80.3,44.0,29.69,ENE,68,6.0,8.5,28,0.00,,,0.00,WUHU216HW,2013-07-05 19:44:00,
2013-07-05 13:54:00,80.6,45.4,29.69,North,0,8.7,8.7,29,0.00,,,0.00,WUHU216HW,2013-07-05 19:54:00,
2013-07-05 14:04:00,80.6,44.4,29.68,NNE,23,5.6,7.2,28,0.00,,,0.00,WUHU216HW,2013-07-05 20:04:00,
2013-07-05 14:14:00,81.2,45.8,29.68,NNE,23,2.5,5.4,29,0.00,,,0.00,WUHU216HW,2013-07-05 20:14:00,
2013-07-05 14:24:00,81.2,44.8,29.68,NNE,23,3.6,7.6,28,0.00,,,0.00,WUHU216HW,2013-07-05 20:24:00,
2013-07-05 14:34:00,81.4,44.9,29.68,NE,45,3.1,5.4,28,0.00,,,0.00,WUHU216HW,2013-07-05 20:34:00,
2013-07-05 14:44:00,82.1,45.6,29.68,ENE,68,1.1,3.4,28,0.00,,,0.00,WUHU216HW,2013-07-05 20:44:00,
2013-07-05 14:54:00,82.4,43.8,29.67,North,0,4.3,5.4,26,0.00,,,0.00,WUHU216HW,2013-07-05 20:54:00,
2013-07-05 15:04:00,82.4,43.8,29.66,NNE,23,6.9,6.9,26,0.00,,,0.00,WUHU216HW,2013-07-05 21:04:00,
2013-07-05 15:14:00,82.4,43.8,29.66,NW,315,4.9,6.5,26,0.00,,,0.00,WUHU216HW,2013-07-05 21:14:00,
2013-07-05 15:24:00,82.6,43.8,29.66,WNW,293,3.8,5.4,26,0.00,,,0.00,WUHU216HW,2013-07-05 21:24:00,
2013-07-05 15:34:00,82.4,42.7,29.65,North,0,3.6,5.8,25,0.00,,,0.00,WUHU216HW,2013-07-05 21:34:00,
2013-07-05 15:44:00,82.8,44.0,29.64,East,90,0.0,4.3,26,0.00,,,0.00,WUHU216HW,2013-07-05 21:44:00,
2013-07-05 15:54:00,83.0,43.1,29.64,NW,315,3.6,4.5,25,0.00,,,0.00,WUHU216HW,2013-07-05 21:54:00,
2013-07-05 16:04:00,82.8,44.0,29.63,WNW,293,3.6,4.7,26,0.00,,,0.00,WUHU216HW,2013-07-05 22:04:00,
2013-07-05 16:14:00,82.8,42.9,29.63,NNE,23,1.1,6.0,25,0.00,,,0.00,WUHU216HW,2013-07-05 22:14:00,
2013-07-05 16:25:00,83.0,43.1,29.63,NW,315,2.5,6.0,25,0.00,,,0.00,WUHU216HW,2013-07-05 22:25:00,
2013-07-05 16:35:00,83.3,42.4,29.63,NNE,23,4.0,5.4,24,0.00,,,0.00,WUHU216HW,2013-07-05 22:35:00,
2013-07-05 16:45:00,83.2,42.2,29.62,North,0,1.8,4.7,24,0.00,,,0.00,WUHU216HW,2013-07-05 22:45:00,
2013-07-05 16:55:00,82.6,42.9,29.62,NE,45,1.8,6.3,25,0.00,,,0.00,WUHU216HW,2013-07-05 22:55:00,
2013-07-05 17:05:00,82.4,42.7,29.62,West,270,2.0,3.8,25,0.00,,,0.00,WUHU216HW,2013-07-05 23:05:00,
2013-07-05 17:15:00,82.6,43.8,29.62,SW,225,2.7,3.4,26,0.00,,,0.00,WUHU216HW,2013-07-05 23:15:00,
2013-07-05 17:25:00,82.8,46.1,29.62,SSE,158,2.7,2.7,28,0.00,,,0.00,WUHU216HW,2013-07-05 23:25:00,
2013-07-05 17:35:00,82.3,46.7,29.61,SSE,158,4.7,6.3,29,0.00,,,0.00,WUHU216HW,2013-07-05 23:35:00,
2013-07-05 17:45:00,81.9,47.4,29.62,SSW,203,5.4,7.6,30,0.00,,,0.00,WUHU216HW,2013-07-05 23:45:00,
2013-07-05 17:55:00,81.4,47.8,29.62,SSW,203,2.0,5.6,31,0.00,,,0.00,WUHU216HW,2013-07-05 23:55:00,
2013-07-05 18:05:00,81.0,47.5,29.62,SSW,203,2.5,4.7,31,0.00,,,0.00,WUHU216HW,2013-07-06 00:05:00,
2013-07-05 18:15:00,81.0,47.5,29.62,SW,225,1.8,4.7,31,0.00,,,0.00,WUHU216HW,2013-07-06 00:15:00,
2013-07-05 18:25:00,80.6,47.3,29.62,SSW,203,2.9,4.7,31,0.00,,,0.00,WUHU216HW,2013-07-06 00:25:00,
2013-07-05 18:35:00,80.5,48.6,29.62,SSW,203,1.8,3.8,33,0.00,,,0.00,WUHU216HW,2013-07-06 00:35:00,
2013-07-05 18:45:00,81.5,48.0,29.62,SSE,158,3.1,5.8,31,0.00,,,0.00,WUHU216HW,2013-07-06 00:45:00,
2013-07-05 18:56:00,81.9,47.4,29.62,SSW,203,3.4,6.5,30,0.00,,,0.00,WUHU216HW,2013-07-06 00:56:00,
2013-07-05 19:06:00,81.7,47.4,29.62,WSW,248,0.9,4.0,30,0.00,,,0.00,WUHU216HW,2013-07-06 01:06:00,
2013-07-05 19:16:00,81.7,47.4,29.62,WSW,248,3.6,5.1,30,0.00,,,0.00,WUHU216HW,2013-07-06 01:16:00,
2013-07-05 19:26:00,82.1,47.6,29.62,SE,135,6.3,6.5,30,0.00,,,0.00,WUHU216HW,2013-07-06 01:26:00,
2013-07-05 19:36:00,81.9,45.4,29.62,WSW,248,5.6,9.8,28,0.00,,,0.00,WUHU216HW,2013-07-06 01:36:00,
2013-07-05 19:46:00,81.7,42.1,29.63,SW,225,9.2,12.8,25,0.00,,,0.00,WUHU216HW,2013-07-06 01:46:00,
2013-07-05 19:56:00,81.4,41.8,29.63,WNW,293,7.6,12.1,25,0.00,,,0.00,WUHU216HW,2013-07-06 01:56:00,
2013-07-05 20:06:00,81.0,39.4,29.64,WNW,293,6.0,11.6,23,0.00,,,0.00,WUHU216HW,2013-07-06 02:06:00,
2013-07-05 20:16:00,80.5,37.9,29.65,SW,225,7.6,10.5,22,0.00,,,0.00,WUHU216HW,2013-07-06 02:16:00,
2013-07-05 20:26:00,79.9,37.4,29.65,WNW,293,8.5,11.6,22,0.00,,,0.00,WUHU216HW,2013-07-06 02:26:00,
2013-07-05 20:36:00,79.6,37.1,29.66,WSW,248,5.8,11.6,22,0.00,,,0.00,WUHU216HW,2013-07-06 02:36:00,
2013-07-05 20:46:00,79.0,36.6,29.66,WSW,248,7.6,9.2,22,0.00,,,0.00,WUHU216HW,2013-07-06 02:46:00,
2013-07-05 20:56:00,78.1,35.9,29.67,West,270,6.5,7.8,22,0.00,,,0.00,WUHU216HW,2013-07-06 02:56:00,
2013-07-05 21:06:00,77.4,35.3,29.67,SW,225,2.5,8.5,22,0.00,,,0.00,WUHU216HW,2013-07-06 03:06:00,
2013-07-05 21:16:00,76.5,35.7,29.68,WSW,248,2.2,5.4,23,0.00,,,0.00,WUHU216HW,2013-07-06 03:16:00,
2013-07-05 21:26:00,75.8,35.0,29.69,SSW,203,2.0,2.0,23,0.00,,,0.00,WUHU216HW,2013-07-06 03:26:00,
2013-07-05 21:36:00,74.9,35.3,29.69,SE,135,1.3,5.4,24,0.00,,,0.00,WUHU216HW,2013-07-06 03:36:00,
2013-07-05 21:46:00,74.0,34.6,29.69,East,90,1.8,3.1,24,0.00,,,0.00,WUHU216HW,2013-07-06 03:46:00,
2013-07-05 21:56:00,73.4,35.1,29.70,SSW,203,4.3,7.8,25,0.00,,,0.00,WUHU216HW,2013-07-06 03:56:00,
2013-07-05 22:06:00,72.9,34.7,29.70,NW,315,0.9,4.5,25,0.00,,,0.00,WUHU216HW,2013-07-06 04:06:00,
2013-07-05 22:16:00,72.5,35.4,29.71,East,90,0.0,3.6,26,0.00,,,0.00,WUHU216HW,2013-07-06 04:16:00,
2013-07-05 22:26:00,72.2,35.0,29.71,South,180,3.6,3.6,26,0.00,,,0.00,WUHU216HW,2013-07-06 04:26:00,
2013-07-05 22:36:00,71.8,36.8,29.72,WSW,248,0.7,3.4,28,0.00,,,0.00,WUHU216HW,2013-07-06 04:36:00,
2013-07-05 22:46:00,71.1,36.2,29.72,SE,135,2.5,2.7,28,0.00,,,0.00,WUHU216HW,2013-07-06 04:46:00,
2013-07-05 22:57:00,70.4,36.5,29.73,ENE,68,0.4,4.7,29,0.00,,,0.00,WUHU216HW,2013-07-06 04:57:00,
2013-07-05 23:07:00,70.2,36.4,29.73,SSE,158,1.6,3.4,29,0.00,,,0.00,WUHU216HW,2013-07-06 05:07:00,
2013-07-05 23:18:00,69.7,36.9,29.74,SSE,158,1.3,3.6,30,0.00,,,0.00,WUHU216HW,2013-07-06 05:18:00,
2013-07-05 23:28:00,69.1,36.5,29.74,WNW,293,1.6,3.8,30,0.00,,,0.00,WUHU216HW,2013-07-06 05:28:00,
2013-07-05 23:38:00,68.9,37.0,29.74,West,270,0.7,1.3,31,0.00,,,0.00,WUHU216HW,2013-07-06 05:38:00,
2013-07-05 23:48:00,68.4,37.3,29.74,North,0,0.9,7.2,32,0.00,,,0.00,WUHU216HW,2013-07-06 05:48:00,
2013-07-05 23:58:00,68.4,37.3,29.74,WNW,293,1.8,2.5,32,0.00,,,0.00,WUHU216HW,2013-07-06 05:58:00,